Погода в Акбайтале

Погода в Акбайтале : погода сейчас, прогноз погоды и архив. Всё, что Вы хотите узнать о погоде в Акбайтале!

Хотите узнать прогноз погоды в Акбайтале? Тогда Вам сюда: Погода в Акбайтале

Поиск расширенной информации на нашем сайте:

Другие новости

Новости СМИ2

Главная страница сайта

Новости сайта

03.07.2017

Напоминаем, что на нашем специализированном сайте Метеоцентр.Азия вы можете получить высокодетализированные автоматические прогнозы погоды по пунктам России, СНГ и мира в авиационном формате (включающие направление и скорость ветра, видимость, явления погоды, количество и форму облачности, нижнюю и верхнюю границу облачности).


Погода в Акбайтале - сегодня

Время (UTC), дата Ветер
(°,м/с) 
Видим.   Явления Облачность Т
(°С)
Тd
(°С)
f(%) Тe
(°С)
Pmin
(гПа)
dP
(гПа)
Po
(мм)
O2
(г/м3)
Тmin Tmax R s Состояние
почвы
15 17.11.17 тихо ()   н/о    ясно 
+5.4 -7.6 39 +5  1024.6  0.4  747  296    +9.2       
18 17.11.17 180 (Ю) н/о    ясно 
+3.2 -8.1 43 +3  1024.5  -0.3  747  298    +9.2       
21 17.11.17 200 (Ю) н/о    ясно 
+1.4 -9.2 45 1023.6  -1.1  746  300           
00 18.11.17 170 (Ю) н/о    ясно 
+0.8 -8.7 49 -1  1022.8  -1  745  300           
03 18.11.17 200 (Ю) 20000 м    10/0 средняя 
[Ac As]
+3 -7.1 47 +1  1022.6  0.1  745  298           
06 18.11.17 300 (СЗ) 20000 м  {дождь}  9/9 600 м 
[Sc]
+3.5 -4.7 55 +2  1025.2  2.7  747  298  +0.8         
09 18.11.17 330 (СЗ) 20000 м    8/8 1000 м 
[Sc diur, vesp]
+3.1 -6.9 48 +1  1027.3  749  299           
12 18.11.17 250 (З) 20000 м    6/6 1000 м 
[Sc diur, vesp]
+3.5 -7.6 44 +2  1029.9  2.5  751  299           
18 18.11.17 тихо ()   н/о    ясно 
-0.5 -10.8 46 -1  1035.5  2.1  754  306    +3.5     
21 18.11.17 250 (З) н/о    ясно 
-2.2 -12 47 -3  1036.1  0.4  755  308           
00 19.11.17 тихо ()   н/о    ясно 
-4.8 -4.7 100 -5  1035.9  -0.6  754  310           
03 19.11.17 140 (ЮВ) 20000 м    ясно 
-6.5 -14.7 52 -8  1036.4  0.4  755  313  -6.5         
06 19.11.17 100 (В) 20000 м    ясно 
-1.5 -12 45 -3  1036.5  0.7  755  307  -6.5         
09 19.11.17 110 (В) 20000 м    ясно 
+3.3 -8.4 42 +2  1035.6  -0.4  755  301           
12 19.11.17 080 (В) 20000 м    ясно 
+4.7 -7.9 40 +4  1035.1  -0.4  754  300           
15 19.11.17 090 (В) н/о    ясно 
+0.5 -10.7 43 1034.6  -0.8  754  304    +4.7       
18 19.11.17 100 (В) н/о    ясно 
-3.2 -13.6 44 -4  1032.6  -2.1  752  308    +4.7       
21 19.11.17 тихо ()   н/о    ясно 
-4.8 -13.9 49 -5  1031.6  -1.5  751  309           
00 20.11.17 110 (В) н/о    ясно 
-6.3 -15.1 50 -8  1026.1  -0.8  751  311           
03 20.11.17 080 (В) 20000 м    ясно 
-7.4 -16.1 50 -10  1030.6  -0.4  750  312  -7.4         
06 20.11.17 100 (В) 20000 м    ясно 
-0.5 -11.4 43 -3  1029.7  -0.1  750  304  -7.4         
09 20.11.17 120 (ЮВ) 20000 м    ясно 
+9.2 -3.6 40 +9  1027.2  -1.4  749  292           
12 20.11.17 090 (В) 20000 м    ясно 
+9.7 -4.1 38 +9  1026.3  -0.9  748  292           
15 20.11.17 090 (В) 20000 м    ясно 
+4.8 -7.7 40 +4  1026.5  -0.3  748  297    +9.7       
18 20.11.17 070 (В) н/о    ясно 
+2.3 -9.2 42 +1  1026  -0.7  748  300    +9.7       
Время (UTC), дата Ветер
(°,м/с) 
Видим.   Явления Облачность Т
(°С)
Тd
(°С)
f(%) Тe
(°С)
Pmin
(гПа)
dP
(гПа)
Po
(мм)
O2
(г/м3)
Тmin Tmax R s Состояние
почвы

Для получения пояснительной информации подведите курсор к названию столбца.

ПОГОДА в Акбайтале - архив

Всё, что Вы хотите узнать о погоде в Акбайтале - удобно и подробно!

Выберите нужную дату (начиная с 1 января 2015* года) и нажмите кнопку "Найти".
Будут отображены архивные сводки погоды по пункту Акбайтал, начиная с указанной даты.


Отображать данные в формате CSV (для использования в таблицах Excel)


Внимание! Наш архив погоды предназначен исключительно для личного некоммерческого использования в познавательных целях. Если Вам необходимы официальные справки о состоянии погоды (для производственных, юридических, коммерческих и т.п. целей), обращайтесь в органы Росгидромета.

*Примечание: данная дата относится к архиву по метеостанциям СССР (Россия, СНГ, Балтия).
Архив по метеостанциям Зарубежной Европы и Азии (кроме Китая) хранится 10 дней, по другим регионам земного шара (Китай, Африка, Америка, Австралия, Океания) - 1 день.

Акбайтал - район местоположения метеостанции


Название, широта, долгота, высота метеостанции:
Акбайтал 43.2°ш. 64.3°д. 234 м над ур. моря [Узбекистан]

Дополнительная информация

В oтличие oт бoльшинства пoгoдных сайтoв мы публикуем пoдрoбную метеoинфoрмацию в детальнoм прoфессиoнальнoм фoрмате.

Характеристики температуры и влажнoсти вoздуха измеряются на высoте 2 м в тени вдали oт зданий и деревьев.
Скoрoсть ветра измеряется на высoте 10 м (на урoвне рoста челoвека скoрoсть ветра ниже в 1.5-2 раза). Если метеoстанция нахoдится в гoрoде или в лесу, тo скoрoсть ветра занижена на 2-4 м/с пo сравнению с oткрытым местoм. Скoрoсть ветра над акватoриями крупных рек и oзёр, а также на вершинах хoлмoв на 2-5 м/с выше, чем в oбычных услoвиях.
Атмoсфернoе давление в разных тoчках местнoсти мoжет значительнo oтличаться oт давления на метеoстанции, в зависимoсти oт услoвий рельефа (при пoдъёме на 10 м давление пoнижается примернo на 1 мм рт.ст.).